Home > Weather > Venice > Past weeks

Flag for Italy Past Weather in Venice, Italy — Yesterday and Last 2 Weeks

Now
84 °F

Sunny.


Feels Like: 86 °F
Forecast: 72 / 87 °F
Wind: 8 mph from Southeast

Location: Venice / Tessera

Current Time: Jul 29, 2016 at 7:53:12 PM

Latest Report: Jul 29, 2016 at 6:50 PM


Visibility: 10 mi

Pressure: 29.89 "Hg

Humidity: 51%

Dew Point: 64 °F

Location of VeniceLocation

Past Weather in Venice — Graph

°F

Venice Temperature Yesterday

Maximum temperature yesterday: 81 °F (at 3:20 PM)
Minimum temperature yesterday: 66 °F (at 10:50 AM)
Average temperature yesterday: 74 °F

High & Low Weather Summary for the Past Weeks

 TemperatureHumidityPressure
High90 °F (Jul 25, 3:50 PM)94% (Jul 18, 5:20 AM)30.12 "Hg (Jul 18, 5:20 AM)
Low61 °F (Jul 15, 12:20 AM)31% (Jul 19, 5:20 PM)29.86 "Hg (Jul 14, 6:20 PM)
Average77 °F64%29.99 "Hg
* Reported Jul 14 6:20 PM — Jul 29 6:20 PM, Venice, Weather by CustomWeather, © 2016

Note: Actual official high and low records may vary slightly from our data, if they occured in-between our weather recording intervals... More about our weather records

Advertising

Venice Weather History for the Previous 24 Hours

Scroll right to see more
 ConditionsComfort  
Time TempWeatherWind HumidityBarometerVisibility
6:20 PM
Fri, Jul 29
84 °FPassing clouds.8 mph51%29.92 "HgN/A
5:50 PM84 °FPassing clouds.6 mph48%29.92 "HgN/A
5:20 PM86 °FPassing clouds.8 mph46%29.92 "HgN/A
4:50 PM86 °FPassing clouds.7 mph46%29.92 "HgN/A
4:20 PM86 °FPassing clouds.7 mph43%29.92 "HgN/A
3:50 PM84 °FSunny.8 mph45%29.95 "Hg10 mi
3:20 PM86 °FPassing clouds.7 mph46%29.95 "HgN/A
2:50 PM84 °FPassing clouds.6 mph48%29.95 "HgN/A
2:20 PM84 °FPassing clouds.6 mph51%29.95 "HgN/A
1:50 PM84 °FPassing clouds.6 mph51%29.95 "HgN/A
1:20 PM82 °FPassing clouds.7 mph55%29.95 "HgN/A
12:50 PM82 °FPassing clouds.6 mph51%29.98 "HgN/A
12:20 PM82 °FPassing clouds.6 mph51%29.98 "HgN/A
11:50 AM82 °FSunny.3 mph55%29.98 "Hg10 mi
11:20 AM81 °FPassing clouds.6 mph54%29.98 "HgN/A
10:50 AM81 °FPassing clouds.6 mph58%29.98 "HgN/A
10:20 AM79 °FPassing clouds.6 mph58%29.98 "HgN/A
9:50 AM79 °FPassing clouds.6 mph58%29.98 "HgN/A
9:20 AM77 °FPassing clouds.6 mph65%29.98 "HgN/A
8:50 AM77 °FPassing clouds.5 mph65%29.98 "HgN/A
8:20 AM75 °FPassing clouds.5 mph65%29.98 "HgN/A
7:50 AM73 °FSunny.6 mph74%29.98 "Hg10 mi
7:20 AM72 °FSunny.5 mph83%29.95 "Hg10 mi
6:50 AM72 °FClear.5 mph83%29.95 "Hg10 mi
6:20 AM70 °FClear.5 mph88%29.95 "Hg10 mi
5:50 AM70 °FPassing clouds.3 mph88%29.95 "HgN/A
5:20 AM70 °FPassing clouds.3 mph88%29.95 "HgN/A
4:50 AM73 °FClear.6 mph74%29.95 "Hg10 mi
4:20 AM70 °FPassing clouds.3 mph88%29.95 "HgN/A
3:50 AM70 °FClear.5 mph88%29.95 "Hg10 mi
3:20 AM70 °FClear.6 mph94%29.95 "Hg10 mi
2:50 AM72 °FClear.5 mph88%29.95 "Hg10 mi
2:20 AM72 °FClear.6 mph88%29.95 "Hg10 mi
1:50 AM73 °FClear.7 mph78%29.95 "Hg10 mi
1:20 AM72 °FPassing clouds.7 mph88%29.95 "HgN/A
12:50 AM73 °FPassing clouds.6 mph83%29.95 "HgN/A
12:20 AM73 °FPassing clouds.3 mph89%29.95 "HgN/A
11:50 PM
Thu, Jul 28
73 °FPassing clouds.3 mph83%29.95 "HgN/A
11:20 PM75 °FPassing clouds.3 mph83%29.95 "HgN/A
10:50 PM75 °FPassing clouds.3 mph83%29.95 "HgN/A
10:20 PM75 °FPassing clouds.3 mph83%29.95 "HgN/A
9:50 PM75 °FPassing clouds.3 mph78%29.95 "HgN/A
9:20 PM77 °FPassing clouds.2 mph74%29.95 "HgN/A
8:50 PM77 °FSunny.2 mph74%29.92 "Hg10 mi
8:20 PM77 °FSunny.5 mph74%29.92 "Hg10 mi
7:50 PM77 °FPassing clouds.3 mph74%29.92 "HgN/A
7:20 PM79 °FPassing clouds.6 mph70%29.92 "HgN/A
Weather by CustomWeather, © 2016

See weather overviewHow to use our weather pages